START_TIME,STEP,MOV.,AL01,t_acc.,AL02,t_acc.,E37,t_acc.,H21,t_acc.
1986-01-26 03:00:35.630 ,3,0,0.,24.0,0.,24.0,0.,24.0,0.,24.0
1986-01-26 03:00:59.630 ,2,1,0.,24.0,0.,24.0,0.,24.0,0.,24.0
1986-01-26 03:01:23.630 ,2,0,0.,24.0,0.,24.0,0.,24.0,0.,24.0
1986-01-26 03:01:47.630 ,1,1,0.,24.0,0.,24.0,0.,24.0,0.,24.0
1986-01-26 03:02:11.630 ,1,0,0.,24.0,0.,24.0,0.,24.0,0.,24.0
1986-01-26 03:02:35.630 ,0,1,0.,24.0,0.,24.0,0.,24.0,0.,24.0
1986-01-26 03:02:59.630 ,0,0,0.,24.0,0.,24.0,0.,24.0,0.,24.0
1986-01-26 03:03:23.630 ,0,1,0.,24.0,0.,24.0,0.,24.0,0.,24.0
1986-01-26 03:03:47.630 ,0,0,0.,24.0,0.,24.0,0.,24.0,0.,24.0
1986-01-26 03:04:11.630 ,1,1,0.,24.0,0.,24.0,0.,24.0,0.,24.0
1986-01-26 03:04:35.630 ,1,0,0.,24.0,0.,24.0,0.,24.0,0.,24.0
1986-01-26 03:04:59.630 ,2,1,0.,24.0,0.,24.0,0.,24.0,0.,24.0
1986-01-26 03:05:23.630 ,2,0,0.,24.0,0.,24.0,0.,24.0,0.,24.0
1986-01-26 03:05:47.630 ,3,1,0.,24.0,0.,24.0,0.,24.0,0.,24.0
1986-01-26 03:06:11.630 ,3,0,0.,24.0,0.,24.0,0.,24.0,0.,24.0
1986-01-26 03:06:35.630 ,4,1,0.,24.0,0.,24.0,0.,24.0,0.,24.0
1986-01-26 03:06:59.630 ,4,0,0.,24.0,0.,24.0,0.,24.0,0.,24.0
1986-01-26 03:07:23.630 ,5,1,0.,24.0,0.,24.0,0.,24.0,0.,24.0
1986-01-26 03:07:47.630 ,5,0,0.,24.0,0.,24.0,0.,24.0,0.,24.0
1986-01-26 03:08:11.630 ,6,1,0.,24.0,0.,24.0,0.,24.0,0.,24.0
1986-01-26 03:08:35.630 ,6,0,0.,24.0,0.,24.0,0.,24.0,0.,24.0
1986-01-26 03:08:59.630 ,7,1,6.,24.0,1.,24.0,0.,24.0,0.,24.0
1986-01-26 03:09:23.630 ,7,0,30.,24.0,1.,24.0,0.,24.0,0.,24.0
1986-01-26 03:09:47.630 ,7,1,37.,24.0,0.,24.0,0.,24.0,0.,24.0
1986-01-26 03:10:11.630 ,7,0,19.,24.0,0.,24.0,0.,24.0,0.,24.0
1986-01-26 03:10:35.630 ,6,1,17.,24.0,0.,24.0,0.,24.0,0.,24.0
1986-01-26 03:10:59.630 ,6,0,0.,24.0,0.,24.0,0.,24.0,0.,24.0
1986-01-26 03:11:23.630 ,5,1,0.,24.0,0.,24.0,0.,24.0,0.,24.0
1986-01-26 03:11:47.630 ,5,0,0.,24.0,0.,24.0,0.,24.0,0.,24.0
1986-01-26 03:12:11.630 ,4,1,0.,24.0,0.,24.0,0.,24.0,0.,24.0
1986-01-26 03:12:35.630 ,4,0,0.,24.0,0.,24.0,0.,24.0,0.,24.0
1986-01-26 03:12:59.630 ,3,1,0.,24.0,0.,24.0,0.,24.0,0.,24.0
1986-01-26 03:13:23.630 ,3,0,0.,24.0,0.,24.0,0.,24.0,0.,24.0
1986-01-26 03:13:47.630 ,2,1,1.,24.0,0.,24.0,0.,24.0,0.,24.0
1986-01-26 03:14:11.630 ,2,0,0.,24.0,0.,24.0,0.,24.0,0.,24.0
1986-01-26 03:14:35.630 ,1,1,0.,24.0,0.,24.0,0.,24.0,0.,24.0
1986-01-26 03:14:59.630 ,1,0,0.,24.0,0.,24.0,0.,24.0,0.,24.0
1986-01-26 03:15:23.630 ,0,1,0.,24.0,0.,24.0,0.,24.0,0.,24.0
1986-01-26 03:15:47.630 ,0,0,0.,24.0,0.,24.0,0.,24.0,0.,24.0
1986-01-26 03:16:11.630 ,0,1,0.,24.0,0.,24.0,0.,24.0,0.,24.0
1986-01-26 03:16:35.630 ,0,0,0.,24.0,0.,24.0,0.,24.0,0.,24.0
1986-01-26 03:16:59.630 ,1,1,0.,24.0,0.,24.0,0.,24.0,0.,24.0
1986-01-26 03:17:23.630 ,1,0,0.,24.0,0.,24.0,0.,24.0,0.,24.0
1986-01-26 03:17:47.630 ,2,1,0.,24.0,0.,24.0,0.,24.0,0.,24.0
1986-01-26 03:18:11.630 ,2,0,0.,24.0,0.,24.0,0.,24.0,0.,24.0
1986-01-26 03:18:35.630 ,3,1,0.,24.0,0.,24.0,0.,24.0,0.,24.0
1986-01-26 03:18:59.630 ,3,0,0.,24.0,0.,24.0,0.,24.0,0.,24.0
1986-01-26 03:19:23.630 ,4,1,0.,24.0,0.,24.0,0.,24.0,0.,24.0
1986-01-26 03:19:47.630 ,4,0,1.,24.0,1.,24.0,0.,24.0,0.,24.0
1986-01-26 03:20:11.630 ,5,1,0.,24.0,0.,24.0,0.,24.0,0.,24.0
1986-01-26 03:20:35.630 ,5,0,0.,24.0,0.,24.0,0.,24.0,0.,24.0
1986-01-26 03:20:59.630 ,6,1,0.,24.0,0.,24.0,0.,24.0,0.,24.0
1986-01-26 03:21:23.630 ,6,0,0.,24.0,0.,24.0,0.,24.0,0.,24.0
1986-01-26 03:21:47.630 ,7,1,4.,24.0,0.,24.0,0.,24.0,0.,24.0
1986-01-26 03:22:11.630 ,7,0,26.,24.0,0.,24.0,0.,24.0,0.,24.0
1986-01-26 03:22:35.630 ,7,1,34.,24.0,1.,24.0,0.,24.0,0.,24.0
1986-01-26 03:22:59.630 ,7,0,32.,24.0,0.,24.0,0.,24.0,0.,24.0
1986-01-26 03:23:23.630 ,6,1,28.,24.0,0.,24.0,0.,24.0,0.,24.0
1986-01-26 03:23:47.630 ,6,0,0.,24.0,0.,24.0,0.,24.0,0.,24.0
1986-01-26 03:24:11.630 ,5,1,0.,24.0,0.,24.0,0.,24.0,0.,24.0
1986-01-26 03:24:35.630 ,5,0,0.,24.0,0.,24.0,0.,24.0,0.,24.0
1986-01-26 03:24:59.630 ,4,1,0.,24.0,0.,24.0,0.,24.0,0.,24.0
1986-01-26 03:25:23.630 ,4,0,0.,24.0,0.,24.0,0.,24.0,0.,24.0
1986-01-26 03:25:47.630 ,3,1,0.,24.0,0.,24.0,0.,24.0,0.,24.0
1986-01-26 03:26:11.630 ,3,0,0.,24.0,0.,24.0,0.,24.0,0.,24.0
1986-01-26 03:26:35.630 ,2,1,0.,24.0,0.,24.0,0.,24.0,0.,24.0
1986-01-26 03:26:59.630 ,2,0,0.,24.0,0.,24.0,0.,24.0,0.,24.0
1986-01-26 03:27:23.630 ,1,1,1.,24.0,0.,24.0,0.,24.0,0.,24.0
1986-01-26 03:27:47.630 ,1,0,0.,24.0,0.,24.0,0.,24.0,0.,24.0
1986-01-26 03:28:11.630 ,0,1,0.,24.0,0.,24.0,0.,24.0,0.,24.0
1986-01-26 03:28:35.630 ,0,0,0.,24.0,0.,24.0,0.,24.0,0.,24.0
1986-01-26 03:28:59.630 ,0,1,0.,24.0,0.,24.0,0.,24.0,0.,24.0
1986-01-26 03:29:23.630 ,0,0,0.,24.0,0.,24.0,0.,24.0,0.,24.0
1986-01-26 03:29:47.630 ,1,1,0.,24.0,0.,24.0,0.,24.0,0.,24.0
1986-01-26 03:30:11.630 ,1,0,0.,24.0,0.,24.0,0.,24.0,0.,24.0
1986-01-26 03:30:35.630 ,2,1,0.,24.0,0.,24.0,0.,24.0,0.,24.0
1986-01-26 03:30:59.630 ,2,0,0.,24.0,0.,24.0,0.,24.0,0.,24.0
1986-01-26 03:31:23.630 ,3,1,0.,24.0,0.,24.0,0.,24.0,0.,24.0
1986-01-26 03:31:47.630 ,3,0,0.,24.0,0.,24.0,0.,24.0,0.,24.0
1986-01-26 03:32:11.630 ,4,1,0.,24.0,0.,24.0,0.,24.0,0.,24.0
1986-01-26 03:32:35.630 ,4,0,0.,24.0,0.,24.0,0.,24.0,0.,24.0
1986-01-26 03:32:59.630 ,5,1,1.,24.0,0.,24.0,0.,24.0,0.,24.0
1986-01-26 03:33:23.630 ,5,0,0.,24.0,0.,24.0,0.,24.0,0.,24.0
1986-01-26 03:33:47.630 ,6,1,0.,24.0,0.,24.0,0.,24.0,0.,24.0
1986-01-26 03:34:11.630 ,6,0,0.,24.0,0.,24.0,0.,24.0,0.,24.0
1986-01-26 03:34:35.630 ,7,1,1.,24.0,0.,24.0,0.,24.0,0.,24.0
1986-01-26 03:34:59.630 ,7,0,37.,24.0,0.,24.0,0.,24.0,0.,24.0
1986-01-26 03:35:23.630 ,7,1,23.,24.0,1.,24.0,0.,24.0,0.,24.0
1986-01-26 03:35:47.630 ,7,0,36.,24.0,0.,24.0,0.,24.0,0.,24.0
1986-01-26 03:36:11.630 ,6,1,35.,24.0,0.,24.0,0.,24.0,0.,24.0
1986-01-26 03:36:35.630 ,6,0,0.,24.0,0.,24.0,0.,24.0,0.,24.0
1986-01-26 03:36:59.630 ,5,1,0.,24.0,0.,24.0,0.,24.0,0.,24.0
1986-01-26 03:37:23.630 ,5,0,0.,24.0,0.,24.0,0.,24.0,0.,24.0
1986-01-26 03:37:47.630 ,4,1,0.,24.0,0.,24.0,0.,24.0,0.,24.0
1986-01-26 03:38:11.630 ,4,0,0.,24.0,0.,24.0,0.,24.0,0.,24.0
1986-01-26 03:38:35.630 ,3,1,0.,24.0,0.,24.0,0.,24.0,0.,24.0
1986-01-26 03:38:59.630 ,3,0,0.,24.0,0.,24.0,0.,24.0,0.,24.0
1986-01-26 03:39:23.630 ,2,1,0.,24.0,0.,24.0,0.,24.0,0.,24.0
1986-01-26 03:39:47.630 ,2,0,0.,24.0,0.,24.0,0.,24.0,0.,24.0
1986-01-26 03:40:11.630 ,1,1,0.,24.0,0.,24.0,0.,24.0,0.,24.0
1986-01-26 03:40:35.630 ,1,0,0.,24.0,0.,24.0,0.,24.0,0.,24.0
1986-01-26 03:40:59.630 ,0,1,0.,24.0,0.,24.0,0.,24.0,0.,24.0
1986-01-26 03:41:23.630 ,0,0,0.,24.0,0.,24.0,0.,24.0,0.,24.0
1986-01-26 03:41:47.630 ,0,1,0.,24.0,0.,24.0,0.,24.0,0.,24.0
1986-01-26 03:42:11.630 ,0,0,0.,24.0,0.,24.0,0.,24.0,0.,24.0
1986-01-26 03:42:35.630 ,1,1,0.,24.0,0.,24.0,0.,24.0,0.,24.0
1986-01-26 03:42:59.630 ,1,0,0.,24.0,0.,24.0,0.,24.0,0.,24.0
1986-01-26 03:43:23.630 ,2,1,0.,24.0,1.,24.0,0.,24.0,0.,24.0
1986-01-26 03:43:47.630 ,2,0,0.,24.0,0.,24.0,0.,24.0,0.,24.0
1986-01-26 03:44:11.630 ,3,1,0.,24.0,0.,24.0,0.,24.0,0.,24.0
1986-01-26 03:44:35.630 ,3,0,0.,24.0,0.,24.0,0.,24.0,0.,24.0
1986-01-26 03:44:59.630 ,4,1,0.,24.0,0.,24.0,0.,24.0,0.,24.0
1986-01-26 03:45:23.630 ,4,0,0.,24.0,0.,24.0,0.,24.0,0.,24.0
1986-01-26 03:45:47.630 ,5,1,0.,24.0,1.,24.0,0.,24.0,0.,24.0
1986-01-26 03:46:11.630 ,5,0,0.,24.0,0.,24.0,0.,24.0,0.,24.0
1986-01-26 03:46:35.630 ,6,1,0.,24.0,0.,24.0,0.,24.0,0.,24.0
1986-01-26 03:46:59.630 ,6,0,0.,24.0,0.,24.0,0.,24.0,0.,24.0
1986-01-26 03:47:23.630 ,7,1,2.,24.0,0.,24.0,0.,24.0,0.,24.0
1986-01-26 03:47:47.630 ,7,0,33.,24.0,0.,24.0,0.,24.0,0.,24.0
1986-01-26 03:48:11.630 ,7,1,40.,24.0,0.,24.0,0.,24.0,0.,24.0
1986-01-26 03:48:35.630 ,7,0,36.,24.0,0.,24.0,0.,24.0,0.,24.0
1986-01-26 03:48:59.630 ,6,1,16.,24.0,0.,24.0,0.,24.0,0.,24.0
1986-01-26 03:49:23.630 ,6,0,0.,24.0,0.,24.0,0.,24.0,0.,24.0
1986-01-26 03:49:47.630 ,5,1,0.,24.0,0.,24.0,0.,24.0,0.,24.0
1986-01-26 03:50:11.630 ,5,0,0.,24.0,0.,24.0,0.,24.0,0.,24.0
1986-01-26 03:50:35.630 ,4,1,0.,24.0,0.,24.0,0.,24.0,0.,24.0
1986-01-26 03:50:59.630 ,4,0,0.,24.0,0.,24.0,0.,24.0,0.,24.0
1986-01-26 03:51:23.630 ,3,1,0.,24.0,0.,24.0,0.,24.0,0.,24.0
1986-01-26 03:51:47.630 ,3,0,0.,24.0,0.,24.0,0.,24.0,0.,24.0
1986-01-26 03:52:11.630 ,2,1,0.,24.0,0.,24.0,0.,24.0,0.,24.0
1986-01-26 03:52:35.630 ,2,0,0.,24.0,0.,24.0,0.,24.0,0.,24.0
1986-01-26 03:52:59.630 ,1,1,0.,24.0,0.,24.0,0.,24.0,0.,24.0
1986-01-26 03:53:23.630 ,1,0,0.,24.0,0.,24.0,0.,24.0,0.,24.0
1986-01-26 03:53:47.630 ,0,1,0.,24.0,0.,24.0,0.,24.0,0.,24.0
1986-01-26 03:54:11.630 ,0,0,0.,24.0,0.,24.0,0.,24.0,0.,24.0
1986-01-26 03:54:35.630 ,0,1,0.,24.0,0.,24.0,0.,24.0,0.,24.0
1986-01-26 03:54:59.630 ,0,0,0.,24.0,0.,24.0,0.,24.0,0.,24.0
1986-01-26 03:55:23.630 ,1,1,0.,24.0,0.,24.0,0.,24.0,0.,24.0
1986-01-26 03:55:47.630 ,1,0,0.,24.0,0.,24.0,0.,24.0,0.,24.0
1986-01-26 03:56:11.630 ,2,1,0.,24.0,0.,24.0,0.,24.0,0.,24.0
1986-01-26 03:56:35.630 ,2,0,0.,24.0,0.,24.0,0.,24.0,0.,24.0
1986-01-26 03:56:59.630 ,3,1,0.,24.0,0.,24.0,0.,24.0,0.,24.0
1986-01-26 03:57:23.630 ,3,0,0.,24.0,0.,24.0,0.,24.0,0.,24.0
1986-01-26 03:57:47.630 ,4,1,1.,24.0,0.,24.0,0.,24.0,0.,24.0
1986-01-26 03:58:11.630 ,4,0,0.,24.0,0.,24.0,0.,24.0,0.,24.0
1986-01-26 03:58:35.630 ,5,1,0.,24.0,0.,24.0,0.,24.0,0.,24.0
1986-01-26 03:58:59.630 ,5,0,0.,24.0,0.,24.0,0.,24.0,0.,24.0
1986-01-26 03:59:23.630 ,6,1,0.,24.0,0.,24.0,0.,24.0,0.,24.0
1986-01-26 03:59:47.630 ,6,0,0.,24.0,1.,24.0,0.,24.0,0.,24.0
1986-01-26 04:00:11.630 ,7,1,14.,24.0,0.,24.0,0.,24.0,0.,24.0
1986-01-26 04:00:35.630 ,7,0,24.,24.0,0.,24.0,0.,24.0,0.,24.0
1986-01-26 04:00:59.630 ,7,1,32.,24.0,0.,24.0,0.,24.0,0.,24.0
1986-01-26 04:01:23.630 ,7,0,21.,24.0,1.,24.0,0.,24.0,0.,24.0
1986-01-26 04:01:47.630 ,6,1,23.,24.0,0.,24.0,0.,24.0,0.,24.0
1986-01-26 04:02:11.630 ,6,0,0.,24.0,0.,24.0,0.,24.0,0.,24.0
1986-01-26 04:02:35.630 ,5,1,0.,24.0,0.,24.0,0.,24.0,0.,24.0
1986-01-26 04:02:59.630 ,5,0,0.,24.0,0.,24.0,0.,24.0,0.,24.0
1986-01-26 04:03:23.630 ,4,1,1.,24.0,0.,24.0,0.,24.0,0.,24.0
1986-01-26 04:03:47.630 ,4,0,0.,24.0,0.,24.0,0.,24.0,0.,24.0
1986-01-26 04:04:11.630 ,3,1,0.,24.0,0.,24.0,0.,24.0,0.,24.0
1986-01-26 04:04:35.630 ,3,0,0.,24.0,0.,24.0,0.,24.0,0.,24.0
1986-01-26 04:04:59.630 ,2,1,0.,24.0,0.,24.0,0.,24.0,0.,24.0
1986-01-26 04:05:23.630 ,2,0,1.,24.0,0.,24.0,0.,24.0,0.,24.0
1986-01-26 04:05:47.630 ,1,1,0.,24.0,0.,24.0,0.,24.0,0.,24.0
1986-01-26 04:06:11.630 ,1,0,0.,24.0,0.,24.0,0.,24.0,0.,24.0
1986-01-26 04:06:35.630 ,0,1,0.,24.0,0.,24.0,0.,24.0,0.,24.0
1986-01-26 04:06:59.630 ,0,0,0.,24.0,1.,24.0,0.,24.0,0.,24.0
1986-01-26 04:07:23.630 ,0,1,0.,24.0,0.,24.0,0.,24.0,0.,24.0
1986-01-26 04:07:47.630 ,0,0,0.,24.0,0.,24.0,0.,24.0,0.,24.0
1986-01-26 04:08:11.630 ,1,1,0.,24.0,0.,24.0,0.,24.0,0.,24.0
1986-01-26 04:08:35.630 ,1,0,0.,24.0,0.,24.0,0.,24.0,0.,24.0
1986-01-26 04:08:59.630 ,2,1,0.,24.0,0.,24.0,0.,24.0,0.,24.0
1986-01-26 04:09:23.630 ,2,0,0.,24.0,0.,24.0,0.,24.0,0.,24.0
1986-01-26 04:09:47.630 ,3,1,0.,24.0,0.,24.0,0.,24.0,0.,24.0
1986-01-26 04:10:11.630 ,3,0,0.,24.0,0.,24.0,0.,24.0,0.,24.0
1986-01-26 04:10:35.630 ,4,1,0.,24.0,0.,24.0,0.,24.0,0.,24.0
1986-01-26 04:10:59.630 ,4,0,0.,24.0,0.,24.0,0.,24.0,0.,24.0
1986-01-26 04:11:23.630 ,5,1,0.,24.0,0.,24.0,0.,24.0,0.,24.0
1986-01-26 04:11:47.630 ,5,0,0.,24.0,0.,24.0,0.,24.0,0.,24.0
1986-01-26 04:12:11.630 ,6,1,0.,24.0,0.,24.0,0.,24.0,0.,24.0
1986-01-26 04:12:35.630 ,6,0,0.,24.0,0.,24.0,0.,24.0,0.,24.0
1986-01-26 04:12:59.630 ,7,1,10.,24.0,0.,24.0,0.,24.0,0.,24.0
1986-01-26 04:13:23.630 ,7,0,32.,24.0,0.,24.0,0.,24.0,0.,24.0
1986-01-26 04:13:47.630 ,7,1,22.,24.0,0.,24.0,0.,24.0,0.,24.0
1986-01-26 04:14:11.630 ,7,0,31.,24.0,0.,24.0,0.,24.0,0.,24.0
1986-01-26 04:14:35.630 ,6,1,21.,24.0,0.,24.0,0.,24.0,0.,24.0
1986-01-26 04:14:59.630 ,6,0,0.,24.0,0.,24.0,0.,24.0,0.,24.0
1986-01-26 04:15:23.630 ,5,1,0.,24.0,0.,24.0,0.,24.0,0.,24.0
1986-01-26 04:15:47.630 ,5,0,0.,24.0,0.,24.0,0.,24.0,0.,24.0
1986-01-26 04:16:11.630 ,4,1,0.,24.0,0.,24.0,0.,24.0,0.,24.0
1986-01-26 04:16:35.630 ,4,0,0.,24.0,0.,24.0,0.,24.0,0.,24.0
1986-01-26 04:16:59.630 ,3,1,0.,24.0,1.,24.0,0.,24.0,0.,24.0
1986-01-26 04:17:23.630 ,3,0,0.,24.0,0.,24.0,0.,24.0,0.,24.0
1986-01-26 04:17:47.630 ,2,1,0.,24.0,0.,24.0,0.,24.0,0.,24.0
1986-01-26 04:18:11.630 ,2,0,0.,24.0,0.,24.0,0.,24.0,0.,24.0
1986-01-26 04:18:35.630 ,1,1,0.,24.0,0.,24.0,0.,24.0,0.,24.0
1986-01-26 04:18:59.630 ,1,0,0.,24.0,0.,24.0,0.,24.0,0.,24.0
1986-01-26 04:19:23.630 ,0,1,1.,24.0,0.,24.0,0.,24.0,0.,24.0
1986-01-26 04:19:47.630 ,0,0,0.,24.0,0.,24.0,0.,24.0,0.,24.0
1986-01-26 04:20:11.630 ,0,1,0.,24.0,0.,24.0,0.,24.0,0.,24.0
1986-01-26 04:20:35.630 ,0,0,0.,24.0,0.,24.0,0.,24.0,0.,24.0
1986-01-26 04:20:59.630 ,1,1,1.,24.0,0.,24.0,0.,24.0,0.,24.0
1986-01-26 04:21:23.630 ,1,0,0.,24.0,0.,24.0,0.,24.0,0.,24.0
1986-01-26 04:21:47.630 ,2,1,0.,24.0,0.,24.0,0.,24.0,0.,24.0
1986-01-26 04:22:11.630 ,2,0,0.,24.0,0.,24.0,0.,24.0,0.,24.0
1986-01-26 04:22:35.630 ,3,1,0.,24.0,0.,24.0,0.,24.0,0.,24.0
1986-01-26 04:22:59.630 ,3,0,0.,24.0,0.,24.0,0.,24.0,0.,24.0
1986-01-26 04:23:23.630 ,4,1,0.,24.0,0.,24.0,0.,24.0,0.,24.0
1986-01-26 04:23:47.630 ,4,0,0.,24.0,0.,24.0,0.,24.0,0.,24.0
1986-01-26 04:24:11.630 ,5,1,0.,24.0,0.,24.0,0.,24.0,0.,24.0
1986-01-26 04:24:35.630 ,5,0,0.,24.0,0.,24.0,0.,24.0,0.,24.0
1986-01-26 04:24:59.630 ,6,1,0.,24.0,1.,24.0,0.,24.0,0.,24.0
1986-01-26 04:25:23.630 ,6,0,0.,24.0,0.,24.0,0.,24.0,0.,24.0
1986-01-26 04:25:47.630 ,7,1,3.,24.0,0.,24.0,0.,24.0,0.,24.0
1986-01-26 04:26:11.630 ,7,0,28.,24.0,1.,24.0,0.,24.0,0.,24.0
1986-01-26 04:26:35.630 ,7,1,34.,24.0,0.,24.0,0.,24.0,0.,24.0
1986-01-26 04:26:59.630 ,7,0,28.,24.0,0.,24.0,0.,24.0,0.,24.0
1986-01-26 04:27:23.630 ,6,1,27.,24.0,0.,24.0,0.,24.0,0.,24.0
1986-01-26 04:27:47.630 ,6,0,0.,24.0,0.,24.0,0.,24.0,0.,24.0
1986-01-26 04:28:11.630 ,5,1,0.,24.0,0.,24.0,0.,24.0,0.,24.0
1986-01-26 04:28:35.630 ,5,0,0.,24.0,0.,24.0,0.,24.0,0.,24.0
1986-01-26 04:28:59.630 ,4,1,0.,24.0,0.,24.0,0.,24.0,0.,24.0
1986-01-26 04:29:23.630 ,4,0,0.,24.0,0.,24.0,0.,24.0,0.,24.0
1986-01-26 04:29:47.630 ,3,1,0.,24.0,0.,24.0,0.,24.0,0.,24.0
1986-01-26 04:30:11.630 ,3,0,0.,24.0,0.,24.0,0.,24.0,0.,24.0
1986-01-26 04:30:35.630 ,2,1,0.,24.0,0.,24.0,0.,24.0,0.,24.0
1986-01-26 04:30:59.630 ,2,0,1.,24.0,0.,24.0,0.,24.0,0.,24.0
1986-01-26 04:31:23.630 ,1,1,0.,24.0,0.,24.0,0.,24.0,0.,24.0
1986-01-26 04:31:47.630 ,1,0,0.,24.0,0.,24.0,0.,24.0,0.,24.0
1986-01-26 04:32:11.630 ,0,1,0.,24.0,0.,24.0,0.,24.0,0.,24.0
1986-01-26 04:32:35.630 ,0,0,0.,24.0,0.,24.0,0.,24.0,0.,24.0
1986-01-26 04:32:59.630 ,0,1,0.,24.0,0.,24.0,0.,24.0,0.,24.0
1986-01-26 04:33:23.630 ,0,0,0.,24.0,0.,24.0,0.,24.0,0.,24.0
1986-01-26 04:33:47.630 ,1,1,0.,24.0,0.,24.0,0.,24.0,0.,24.0
1986-01-26 04:34:11.630 ,1,0,0.,24.0,0.,24.0,0.,24.0,0.,24.0
1986-01-26 04:34:35.630 ,2,1,0.,24.0,0.,24.0,0.,24.0,0.,24.0
1986-01-26 04:34:59.630 ,2,0,0.,24.0,0.,24.0,0.,24.0,0.,24.0
1986-01-26 04:35:23.630 ,3,1,0.,24.0,0.,24.0,0.,24.0,0.,24.0
1986-01-26 04:35:47.630 ,3,0,0.,24.0,0.,24.0,0.,24.0,0.,24.0
1986-01-26 04:36:11.630 ,4,1,0.,24.0,0.,24.0,0.,24.0,0.,24.0
1986-01-26 04:36:35.630 ,4,0,0.,24.0,0.,24.0,0.,24.0,0.,24.0
1986-01-26 04:36:59.630 ,5,1,0.,24.0,0.,24.0,0.,24.0,0.,24.0
1986-01-26 04:37:23.630 ,5,0,0.,24.0,0.,24.0,0.,24.0,0.,24.0
1986-01-26 04:37:47.620 ,6,1,0.,24.0,1.,24.0,0.,24.0,0.,24.0
1986-01-26 04:38:11.620 ,6,0,0.,24.0,0.,24.0,0.,24.0,0.,24.0
1986-01-26 04:38:35.620 ,7,1,4.,24.0,0.,24.0,0.,24.0,0.,24.0
1986-01-26 04:38:59.620 ,7,0,31.,24.0,0.,24.0,0.,24.0,0.,24.0
1986-01-26 04:39:23.620 ,7,1,20.,24.0,0.,24.0,0.,24.0,0.,24.0
1986-01-26 04:39:47.620 ,7,0,36.,24.0,0.,24.0,0.,24.0,0.,24.0
1986-01-26 04:40:11.620 ,6,1,20.,24.0,0.,24.0,0.,24.0,0.,24.0
1986-01-26 04:40:35.620 ,6,0,0.,24.0,0.,24.0,0.,24.0,0.,24.0
1986-01-26 04:40:59.620 ,5,1,0.,24.0,1.,24.0,0.,24.0,0.,24.0
1986-01-26 04:41:23.620 ,5,0,0.,24.0,0.,24.0,0.,24.0,0.,24.0
1986-01-26 04:41:47.620 ,4,1,0.,24.0,1.,24.0,0.,24.0,0.,24.0
1986-01-26 04:42:11.620 ,4,0,0.,24.0,0.,24.0,0.,24.0,0.,24.0
1986-01-26 04:42:35.620 ,3,1,0.,24.0,0.,24.0,0.,24.0,0.,24.0
1986-01-26 04:42:59.620 ,3,0,0.,24.0,0.,24.0,0.,24.0,0.,24.0
1986-01-26 04:43:23.620 ,2,1,0.,24.0,0.,24.0,0.,24.0,0.,24.0
1986-01-26 04:43:47.620 ,2,0,0.,24.0,0.,24.0,0.,24.0,0.,24.0
1986-01-26 04:44:11.620 ,1,1,0.,24.0,0.,24.0,0.,24.0,0.,24.0
1986-01-26 04:44:35.620 ,1,0,0.,24.0,0.,24.0,0.,24.0,0.,24.0
1986-01-26 04:44:59.620 ,0,1,0.,24.0,0.,24.0,0.,24.0,0.,24.0
1986-01-26 04:45:23.620 ,0,0,0.,24.0,1.,24.0,0.,24.0,0.,24.0
1986-01-26 04:45:47.620 ,0,1,0.,24.0,0.,24.0,0.,24.0,0.,24.0
1986-01-26 04:46:11.620 ,0,0,0.,24.0,0.,24.0,0.,24.0,0.,24.0
1986-01-26 04:46:35.620 ,1,1,0.,24.0,0.,24.0,0.,24.0,0.,24.0
1986-01-26 04:46:59.620 ,1,0,0.,24.0,0.,24.0,0.,24.0,0.,24.0
1986-01-26 04:47:23.620 ,2,1,0.,24.0,0.,24.0,0.,24.0,0.,24.0
1986-01-26 04:47:47.620 ,2,0,0.,24.0,0.,24.0,0.,24.0,0.,24.0
1986-01-26 04:48:11.620 ,3,1,1.,24.0,0.,24.0,0.,24.0,0.,24.0
1986-01-26 04:48:35.620 ,3,0,0.,24.0,0.,24.0,0.,24.0,0.,24.0
1986-01-26 04:48:59.620 ,4,1,0.,24.0,0.,24.0,0.,24.0,0.,24.0
1986-01-26 04:49:23.620 ,4,0,0.,24.0,0.,24.0,0.,24.0,0.,24.0
1986-01-26 04:49:47.620 ,5,1,0.,24.0,0.,24.0,0.,24.0,0.,24.0
1986-01-26 04:50:11.620 ,5,0,0.,24.0,0.,24.0,0.,24.0,0.,24.0
1986-01-26 04:50:35.620 ,6,1,0.,24.0,0.,24.0,0.,24.0,0.,24.0
1986-01-26 04:50:59.620 ,6,0,0.,24.0,0.,24.0,0.,24.0,0.,24.0
1986-01-26 04:51:23.620 ,7,1,5.,24.0,0.,24.0,0.,24.0,0.,24.0
1986-01-26 04:51:47.620 ,7,0,29.,24.0,0.,24.0,0.,24.0,0.,24.0
1986-01-26 04:52:11.620 ,7,1,20.,24.0,0.,24.0,0.,24.0,0.,24.0
1986-01-26 04:52:35.620 ,7,0,37.,24.0,0.,24.0,0.,24.0,0.,24.0
1986-01-26 04:52:59.620 ,6,1,14.,24.0,0.,24.0,0.,24.0,0.,24.0
1986-01-26 04:53:23.620 ,6,0,0.,24.0,0.,24.0,0.,24.0,0.,24.0
1986-01-26 04:53:47.620 ,5,1,0.,24.0,1.,24.0,0.,24.0,0.,24.0
1986-01-26 04:54:11.620 ,5,0,0.,24.0,0.,24.0,0.,24.0,0.,24.0
1986-01-26 04:54:35.620 ,4,1,0.,24.0,0.,24.0,0.,24.0,0.,24.0
1986-01-26 04:54:59.620 ,4,0,0.,24.0,0.,24.0,0.,24.0,0.,24.0
1986-01-26 04:55:23.620 ,3,1,0.,24.0,0.,24.0,0.,24.0,0.,24.0
1986-01-26 04:55:47.620 ,3,0,0.,24.0,0.,24.0,0.,24.0,0.,24.0
1986-01-26 04:56:11.620 ,2,1,0.,24.0,0.,24.0,0.,24.0,0.,24.0
1986-01-26 04:56:35.620 ,2,0,0.,24.0,0.,24.0,0.,24.0,0.,24.0
1986-01-26 04:56:59.620 ,1,1,0.,24.0,0.,24.0,0.,24.0,0.,24.0
1986-01-26 04:57:23.620 ,1,0,0.,24.0,0.,24.0,0.,24.0,0.,24.0
1986-01-26 04:57:47.620 ,0,1,0.,24.0,0.,24.0,0.,24.0,0.,24.0
1986-01-26 04:58:11.620 ,0,0,0.,24.0,0.,24.0,0.,24.0,0.,24.0
1986-01-26 04:58:35.620 ,0,1,0.,24.0,0.,24.0,0.,24.0,0.,24.0
1986-01-26 04:58:59.620 ,0,0,0.,24.0,0.,24.0,0.,24.0,0.,24.0
1986-01-26 04:59:23.620 ,1,1,0.,24.0,0.,24.0,0.,24.0,0.,24.0
1986-01-26 04:59:47.620 ,1,0,0.,24.0,0.,24.0,0.,24.0,0.,24.0
1986-01-26 05:00:11.620 ,2,1,0.,24.0,0.,24.0,0.,24.0,0.,24.0
1986-01-26 05:00:35.620 ,2,0,0.,24.0,0.,24.0,0.,24.0,0.,24.0
1986-01-26 05:00:59.620 ,3,1,0.,24.0,0.,24.0,0.,24.0,0.,24.0
1986-01-26 05:01:23.620 ,3,0,0.,24.0,0.,24.0,0.,24.0,0.,24.0
1986-01-26 05:01:47.620 ,4,1,0.,24.0,0.,24.0,0.,24.0,0.,24.0
1986-01-26 05:02:11.620 ,4,0,0.,24.0,0.,24.0,0.,24.0,0.,24.0
1986-01-26 05:02:35.620 ,5,1,0.,24.0,0.,24.0,0.,24.0,0.,24.0
1986-01-26 05:02:59.620 ,5,0,0.,24.0,0.,24.0,0.,24.0,0.,24.0
1986-01-26 05:03:23.620 ,6,1,0.,24.0,0.,24.0,0.,24.0,0.,24.0
1986-01-26 05:03:47.620 ,6,0,0.,24.0,0.,24.0,0.,24.0,0.,24.0
1986-01-26 05:04:11.620 ,7,1,4.,24.0,0.,24.0,0.,24.0,0.,24.0
1986-01-26 05:04:35.620 ,7,0,27.,24.0,0.,24.0,0.,24.0,0.,24.0
1986-01-26 05:04:59.620 ,7,1,29.,24.0,0.,24.0,0.,24.0,0.,24.0
1986-01-26 05:05:23.620 ,7,0,32.,24.0,0.,24.0,0.,24.0,0.,24.0
1986-01-26 05:05:47.620 ,6,1,24.,24.0,0.,24.0,0.,24.0,0.,24.0
1986-01-26 05:06:11.620 ,6,0,0.,24.0,0.,24.0,0.,24.0,0.,24.0
1986-01-26 05:06:35.620 ,5,1,0.,24.0,0.,24.0,0.,24.0,0.,24.0
1986-01-26 05:06:59.620 ,5,0,0.,24.0,0.,24.0,0.,24.0,0.,24.0
1986-01-26 05:07:23.620 ,4,1,0.,24.0,0.,24.0,0.,24.0,0.,24.0
1986-01-26 05:07:47.620 ,4,0,0.,24.0,1.,24.0,0.,24.0,0.,24.0
1986-01-26 05:08:11.620 ,3,1,0.,24.0,0.,24.0,0.,24.0,0.,24.0
1986-01-26 05:08:35.620 ,3,0,0.,24.0,0.,24.0,0.,24.0,0.,24.0
1986-01-26 05:08:59.620 ,2,1,0.,24.0,0.,24.0,0.,24.0,0.,24.0
1986-01-26 05:09:23.620 ,2,0,0.,24.0,0.,24.0,0.,24.0,0.,24.0
1986-01-26 05:09:47.620 ,1,1,0.,24.0,0.,24.0,0.,24.0,0.,24.0
1986-01-26 05:10:11.620 ,1,0,0.,24.0,0.,24.0,0.,24.0,0.,24.0
1986-01-26 05:10:35.620 ,0,1,0.,24.0,0.,24.0,0.,24.0,0.,24.0
1986-01-26 05:10:59.620 ,0,0,0.,24.0,0.,24.0,0.,24.0,0.,24.0
1986-01-26 05:11:23.620 ,0,1,0.,24.0,0.,24.0,0.,24.0,0.,24.0
1986-01-26 05:11:47.620 ,0,0,0.,24.0,0.,24.0,0.,24.0,0.,24.0
1986-01-26 05:12:11.620 ,1,1,0.,24.0,0.,24.0,0.,24.0,0.,24.0
1986-01-26 05:12:35.620 ,1,0,0.,24.0,0.,24.0,0.,24.0,0.,24.0
1986-01-26 05:12:59.620 ,2,1,0.,24.0,0.,24.0,0.,24.0,0.,24.0
1986-01-26 05:13:23.620 ,2,0,0.,24.0,0.,24.0,0.,24.0,0.,24.0
1986-01-26 05:13:47.620 ,3,1,0.,24.0,0.,24.0,0.,24.0,0.,24.0
1986-01-26 05:14:11.620 ,3,0,0.,24.0,0.,24.0,0.,24.0,0.,24.0
1986-01-26 05:14:35.620 ,4,1,0.,24.0,0.,24.0,0.,24.0,0.,24.0
1986-01-26 05:14:59.620 ,4,0,0.,24.0,0.,24.0,0.,24.0,0.,24.0
1986-01-26 05:15:23.620 ,5,1,0.,24.0,0.,24.0,0.,24.0,0.,24.0
1986-01-26 05:15:47.620 ,5,0,0.,24.0,0.,24.0,0.,24.0,0.,24.0
1986-01-26 05:16:11.620 ,6,1,0.,24.0,0.,24.0,0.,24.0,0.,24.0
1986-01-26 05:16:35.620 ,6,0,0.,24.0,0.,24.0,0.,24.0,0.,24.0
1986-01-26 05:16:59.620 ,7,1,7.,24.0,0.,24.0,0.,24.0,0.,24.0
1986-01-26 05:17:23.620 ,7,0,33.,24.0,0.,24.0,0.,24.0,0.,24.0
1986-01-26 05:17:47.620 ,7,1,35.,24.0,0.,24.0,0.,24.0,0.,24.0
1986-01-26 05:18:11.620 ,7,0,29.,24.0,0.,24.0,0.,24.0,0.,24.0
1986-01-26 05:18:35.620 ,6,1,24.,24.0,0.,24.0,0.,24.0,0.,24.0
1986-01-26 05:18:59.620 ,6,0,0.,24.0,0.,24.0,0.,24.0,0.,24.0
1986-01-26 05:19:23.620 ,5,1,0.,24.0,0.,24.0,0.,24.0,0.,24.0
1986-01-26 05:19:47.620 ,5,0,0.,24.0,0.,24.0,0.,24.0,0.,24.0
1986-01-26 05:20:11.620 ,4,1,0.,24.0,0.,24.0,0.,24.0,0.,24.0
1986-01-26 05:20:35.620 ,4,0,0.,24.0,0.,24.0,0.,24.0,0.,24.0
1986-01-26 05:20:59.620 ,3,1,0.,24.0,0.,24.0,0.,24.0,0.,24.0
1986-01-26 05:21:23.620 ,3,0,0.,24.0,0.,24.0,0.,24.0,0.,24.0
1986-01-26 05:21:47.620 ,2,1,0.,24.0,0.,24.0,0.,24.0,0.,24.0
1986-01-26 05:22:11.620 ,2,0,0.,24.0,0.,24.0,0.,24.0,0.,24.0
1986-01-26 05:22:35.620 ,1,1,0.,24.0,0.,24.0,0.,24.0,0.,24.0
1986-01-26 05:22:59.620 ,1,0,0.,24.0,0.,24.0,0.,24.0,0.,24.0
1986-01-26 05:23:23.620 ,0,1,0.,24.0,0.,24.0,0.,24.0,0.,24.0
1986-01-26 05:23:47.620 ,0,0,0.,24.0,0.,24.0,0.,24.0,0.,24.0
1986-01-26 05:24:11.620 ,0,1,0.,24.0,0.,24.0,0.,24.0,0.,24.0
1986-01-26 05:24:35.620 ,0,0,0.,24.0,0.,24.0,0.,24.0,0.,24.0
1986-01-26 05:24:59.620 ,1,1,0.,24.0,0.,24.0,0.,24.0,0.,24.0
1986-01-26 05:25:23.620 ,1,0,0.,24.0,0.,24.0,0.,24.0,0.,24.0
1986-01-26 05:25:47.620 ,2,1,0.,24.0,0.,24.0,0.,24.0,0.,24.0
1986-01-26 05:26:11.620 ,2,0,0.,24.0,0.,24.0,0.,24.0,0.,24.0
1986-01-26 05:26:35.620 ,3,1,0.,24.0,0.,24.0,0.,24.0,0.,24.0
1986-01-26 05:26:59.620 ,3,0,0.,24.0,0.,24.0,0.,24.0,0.,24.0
1986-01-26 05:27:23.620 ,4,1,0.,24.0,0.,24.0,0.,24.0,0.,24.0
1986-01-26 05:27:47.620 ,4,0,0.,24.0,0.,24.0,0.,24.0,0.,24.0
1986-01-26 05:28:11.620 ,5,1,0.,24.0,0.,24.0,0.,24.0,0.,24.0
1986-01-26 05:28:35.620 ,5,0,0.,24.0,0.,24.0,0.,24.0,0.,24.0
1986-01-26 05:28:59.620 ,6,1,0.,24.0,0.,24.0,0.,24.0,0.,24.0
1986-01-26 05:29:23.620 ,6,0,0.,24.0,0.,24.0,0.,24.0,0.,24.0
1986-01-26 05:29:47.620 ,7,1,6.,24.0,0.,24.0,0.,24.0,0.,24.0
1986-01-26 05:30:11.620 ,7,0,30.,24.0,0.,24.0,0.,24.0,0.,24.0
1986-01-26 05:30:35.620 ,7,1,32.,24.0,0.,24.0,0.,24.0,0.,24.0
1986-01-26 05:30:59.620 ,7,0,34.,24.0,0.,24.0,0.,24.0,0.,24.0
1986-01-26 05:31:23.620 ,6,1,19.,24.0,0.,24.0,0.,24.0,0.,24.0
1986-01-26 05:31:47.620 ,6,0,0.,24.0,0.,24.0,0.,24.0,0.,24.0
1986-01-26 05:32:11.620 ,5,1,0.,24.0,0.,24.0,0.,24.0,0.,24.0
1986-01-26 05:32:35.620 ,5,0,1.,24.0,0.,24.0,0.,24.0,0.,24.0
1986-01-26 05:32:59.620 ,4,1,0.,24.0,0.,24.0,0.,24.0,0.,24.0
1986-01-26 05:33:23.620 ,4,0,0.,24.0,1.,24.0,0.,24.0,0.,24.0
1986-01-26 05:33:47.620 ,3,1,0.,24.0,0.,24.0,0.,24.0,0.,24.0
1986-01-26 05:34:11.620 ,3,0,0.,24.0,0.,24.0,0.,24.0,0.,24.0